Latrobe, PA

9:57 AM EST on November 21, 2019 (GMT -0500)
Arnold Palmer Regional

Weather History for KLBE - October, 2019

Change the Weather History Date:

Wednesday, October 23, 2019

  Actual Average Record
Temperature  
Mean Temperature 48 °F -  
Max Temperature 57 °F 58 °F 78 °F (2001)
Min Temperature 39 °F 38 °F 24 °F (1997)
Degree Days  
Heating Degree Days 17    
Moisture  
Dew Point 40 °F    
Average Humidity 77    
Maximum Humidity 100    
Minimum Humidity 33    
Precipitation  
Precipitation 0.00 in - - ()
Sea Level Pressure  
Sea Level Pressure 30.03 in    
Wind  
Wind Speed 7 mph (SSW)    
Max Wind Speed 24 mph    
Max Gust Speed 34 mph    
Visibility 11 miles    
Events      
Averages and records for this station are not official NWS values.
T = Trace of Precipitation, MM = Missing Value Source: NWS Daily Summary

Daily Weather History Graph

Daily Weather History Graph

Search for Another Location

Airport or City:

Astronomy

Oct. 23, 2019 Rise Set
Actual Time 7:36 AM EDT 6:26 PM EDT
Civil Twilight 7:09 AM EDT 6:54 PM EDT
Nautical Twilight 6:37 AM EDT 7:25 PM EDT
Astronomical Twilight 6:05 AM EDT 7:57 PM EDT
Moon 1:52 AM EDT (10/23) 4:16 PM EDT (10/23)
Length of Visible Light 11h 45m
Length of Day
10h 49m
Waning Crescent, 27% of the Moon is Illuminated
Oct 23
Waning Crescent
Oct 27
New
Nov 4
First Quarter
Nov 12
Full
Nov 19
Last Quarter

Hourly Weather History & Observations

Time (EDT) Temp. Windchill Dew Point Humidity Pressure Visibility Wind Dir Wind Speed Gust Speed Precip Events Conditions
12:15 AM 50.0 °F - 50.0 °F 100% 29.89 in 10.0 mi SSW 5.8 mph - N/A   Mostly Cloudy
12:35 AM 48.2 °F - 48.2 °F 100% 29.89 in 10.0 mi SSW 6.9 mph - N/A   Mostly Cloudy
12:55 AM 46.4 °F - 46.4 °F 100% 29.90 in 10.0 mi Calm Calm - N/A   Scattered Clouds
1:15 AM 48.2 °F - 48.2 °F 100% 29.89 in 10.0 mi SSW 4.6 mph - N/A   Scattered Clouds
1:35 AM 46.4 °F 44.3 °F 46.4 °F 100% 29.89 in 10.0 mi SSW 4.6 mph - N/A   Mostly Cloudy
1:55 AM 48.2 °F - 48.2 °F 100% 29.89 in 10.0 mi South 6.9 mph - N/A   Partly Cloudy
2:15 AM 48.2 °F - 48.2 °F 100% 29.90 in 10.0 mi South 5.8 mph - N/A   Clear
2:35 AM 48.2 °F - 46.4 °F 93% 29.91 in 10.0 mi SSW 5.8 mph - N/A   Clear
2:55 AM 46.4 °F 44.3 °F 44.6 °F 93% 29.91 in 10.0 mi South 4.6 mph - N/A   Clear
3:35 AM 48.2 °F - 46.4 °F 93% 29.93 in 10.0 mi SSW 6.9 mph - N/A   Scattered Clouds
3:55 AM 46.4 °F 42.9 °F 44.6 °F 93% 29.93 in 10.0 mi SSW 6.9 mph - N/A   Scattered Clouds
4:15 AM 46.4 °F 44.3 °F 46.4 °F 100% 29.94 in 10.0 mi South 4.6 mph - N/A   Mostly Cloudy
4:35 AM 48.2 °F - 44.6 °F 87% 29.94 in 10.0 mi South 6.9 mph - N/A   Mostly Cloudy
4:55 AM 46.4 °F 43.5 °F 42.8 °F 87% 29.95 in 10.0 mi SSW 5.8 mph - N/A   Partly Cloudy
5:15 AM 46.4 °F 42.4 °F 44.6 °F 93% 29.96 in 10.0 mi SSW 8.1 mph - N/A   Clear
5:35 AM 46.4 °F 42.9 °F 44.6 °F 93% 29.96 in 10.0 mi South 6.9 mph - N/A   Clear
5:55 AM 46.4 °F 42.9 °F 42.8 °F 87% 29.97 in 10.0 mi SSW 6.9 mph - N/A   Clear
6:53 AM 44.6 °F 39.7 °F 42.8 °F 93% 29.99 in 10.0 mi SSW 9.2 mph - N/A   Clear
7:53 AM 42.8 °F 36.6 °F 41.0 °F 93% 30.01 in 10.0 mi SSW 11.5 mph - N/A   Clear
8:53 AM 46.4 °F 41.1 °F 42.8 °F 87% 30.03 in 10.0 mi SSW 11.5 mph - N/A   Clear
9:53 AM 50.0 °F - 42.8 °F 76% 30.06 in 10.0 mi SSW 11.5 mph - N/A   Clear
10:50 AM 51.8 °F - 41.0 °F 67% 30.06 in 15.0 mi SW 17.3 mph 25.3 mph N/A   Clear
11:55 AM 53.6 °F - 37.4 °F 54% 30.07 in 15.0 mi SW 23.0 mph 34.5 mph N/A   Scattered Clouds
12:50 PM 55.4 °F - 33.8 °F 44% 30.09 in 15.0 mi WSW 23.0 mph 34.5 mph N/A   Scattered Clouds
1:45 PM 55.4 °F - 32.0 °F 41% 30.08 in 15.0 mi WSW 15.0 mph 25.3 mph N/A   Clear
2:50 PM 57.2 °F - 28.4 °F 33% 30.09 in 15.0 mi SW 18.4 mph 29.9 mph N/A   Clear
3:51 PM 57.2 °F - 30.2 °F 36% 30.10 in 10.0 mi West 24.2 mph 32.2 mph N/A   Clear
4:51 PM 55.4 °F - 30.2 °F 38% 30.14 in 10.0 mi WSW 13.8 mph 32.2 mph N/A   Clear
5:51 PM 51.8 °F - 30.2 °F 44% 30.14 in 10.0 mi WSW 9.2 mph - N/A   Clear
6:51 PM 50.0 °F - 30.2 °F 47% 30.16 in 10.0 mi WSW 4.6 mph - N/A   Clear
8:51 PM 42.8 °F 39.3 °F 33.8 °F 70% 30.18 in 10.0 mi SSW 5.8 mph - N/A   Clear
9:51 PM 42.8 °F 38.6 °F 33.8 °F 70% 30.18 in 10.0 mi SSW 6.9 mph - N/A   Clear
10:15 PM 44.6 °F - 32.0 °F 61% 30.19 in 10.0 mi Calm Calm - N/A   Clear
10:35 PM 39.2 °F 35.0 °F 32.0 °F 75% 30.20 in 10.0 mi SSW 5.8 mph - N/A   Clear
10:55 PM 42.8 °F 40.1 °F 33.8 °F 70% 30.20 in 10.0 mi South 4.6 mph - N/A   Clear
11:15 PM 44.6 °F - 32.0 °F 61% 30.20 in 10.0 mi Calm Calm - N/A   Clear
11:35 PM 42.8 °F - 33.8 °F 70% 30.20 in 10.0 mi Calm Calm - N/A   Clear
11:55 PM 44.6 °F - 32.0 °F 61% 30.21 in 10.0 mi Calm Calm - N/A   Clear